Regional Weather Roundup
Issued by NWS

Home | Current Version | Previous Version | Graphics & Text | Print | Product List | Glossary On
Versions: 1 2 3 4 5 6 7 8 9 10 11 12 13 14 15 16 17 18 19 20 21 22 23 24 25 26 27 28 29 30 31 32 33 34 35 36 37 38 39 40 41 42 43 44 45 46 47 48 49 50
234
ASUS45 KSLC 031110
RWRUT

UTAH REGIONAL WEATHER ROUNDUP
NATIONAL WEATHER SERVICE SALT LAKE CITY UT
500 AM MDT TUE MAY 03 2016

UTZ001>011-023>025-031200-

NORTHERN UTAH

CITY           SKY/WX    TMP DP  RH WIND       PRES   REMARKS
BRIGHAM CITY   CLEAR     42  35  76 NW3       30.21S
HILL AFB       CLEAR     46  31  56 SE14      30.20R
LOGAN          CLEAR     37  33  85 N5        30.22R WCI  33
OGDEN          CLEAR     45  32  60 S7        30.19R
PROVO AIRPORT  CLEAR     45  30  57 SE3       30.22R
SALT LAKE CITY CLEAR     48  35  60 SE7       30.20R
VERNAL         CLEAR     39  22  50 W3        30.21S
WENDOVER       CLEAR     45  36  70 CALM      30.20R
HEBER CITY     CLEAR     32  28  86 CALM      30.25R

$$

UTZ012>022-026-027-031200-

SOUTHERN/CENTRAL UTAH

CITY           SKY/WX    TMP DP  RH WIND       PRES   REMARKS
BLANDING       CLEAR     38  32  78 N5        30.25S WCI  35
BRYCE CANYON   CLEAR     27  25  92 W8        30.27S WCI  19
CEDAR CITY     CLEAR     34  32  92 CALM      30.20R
DELTA          CLEAR     41  37  87 NE6       30.20S
HANKSVILLE     CLEAR     43  37  81 CALM      30.19S
MILFORD        CLEAR     38  33  82 S5        30.20R WCI  34
MOAB/CYNLANDS  CLEAR     43  36  76 CALM      30.15R
PRICE          CLEAR     43  29  57 CALM      30.21R
ST GEORGE      SUNNY     54  39  58 CALM      30.14S
KANAB          CLEAR     45  37  76 N13       30.22R

$$

REGIONAL REPORTS     COLORADO/ARIZONA

CITY           SKY/WX    TMP DP  RH WIND       PRES   REMARKS
CRAIG, CO      CLOUDY    26  22  84 CALM      30.26R
GRAND JUNCTION CLEAR     38  35  89 NE3       30.18R
RIFLE          CLEAR     36  29  75 SE3       30.22R
MONTROSE       CLEAR     39  30  70 SE8       30.23R WCI  33
CORTEZ         CLEAR     31  28  89 E5        30.20R WCI  26
PAGE, AZ       CLEAR     50  39  66 S5        30.15S
GRAND CANYON   CLEAR     36  32  85 NE7       30.21R WCI  30
KINGMAN        CLEAR     52  39  61 VRB5      30.07S
FLAGSTAFF      CLEAR     30  29  96 NE3       30.19S

$$

REGIONAL REPORTS    NEVADA/IDAHO/WYOMING

CITY           SKY/WX    TMP DP  RH WIND       PRES   REMARKS
LAS VEGAS, NV  CLEAR     64  41  42 SW3       30.01R
ELY            PTCLDY    32  29  88 S8        30.26R WCI  25
ELKO           CLEAR     40  35  83 CALM      30.20R
POCATELLO, ID  CLEAR     35  31  85 CALM      30.21R
BURLEY         CLEAR     41  37  86 NE3       30.17R
EVANSTON, WY   CLOUDY    36  24  62 CALM      30.27S
ROCK SPRINGS   CLOUDY    36  23  59 CALM      30.26R
KEMMERER         N/A     32  21  64 NW9       30.28S WCI  24

$$




USA.gov is the U.S. government's official web portal to all federal, state and local government web resources and services.